"Pseudo-MPEC" for TF26G22

Created 2026 Jul 20 2:35:12 UT using Find_Orb

Click here for an explanation of pseudo-MPECs

 
 Astrometry: 
     TF26G22* C2026 07 10.30030920 18 39.350+13 35 21.94   ~7CF5 19.57GVNEOCPU74
     TF26G22  C2026 07 10.30365020 18 47.874+13 33 57.95   ~7CF5 19.57GVNEOCPU74

Station data:
(U74) JPL SynTrack Robotic Telescope 2, Auberry  (N37.070341 W119.412800)
   US/California.  Observers N. Saini, C. Zhai, R. Trahan, M. Zhan, M. Shao.
   0.36-m f/2.2 Schmidt.

Orbital elements:  TF26G22
   Perihelion 2026 Sep 1.166583 +/- 35.3 TT =  3:59:52.7 (JD 2461284.666583)
Epoch 2026 Jul 10.0 TT = JDT 2461231.5   Earth MOID: 0.0026      AutoNEOCP
M 332.099830295 +/- 27              (J2000 ecliptic)
n   0.524768911 +/- 0.367           Peri.  256.181908 +/- 59
a   1.522266360 +/- 0.709           Node   108.926341 +/- 60
e   0.49978551 +/- 0.255            Incl.   25.647054 +/- 12
P   1.878/686.003d         H 27.36  G  0.15   U 12.1  SR
q 0.761459681 +/- 0.183    Q 2.283073040 +/- 34
From 2 observations 2026 July 10 (4.8 min); mean residual 0".01
Residuals in arcseconds: 
260710 U74  .01+  .00     260710 U74  .01+  .00     

Ephemerides (geocentric):
Date (UTC) HH   RA             Dec           delta  r     elong  mag " sig PA
---- --------  ------------   ------------  ------ ------ -----  --- --------
2026 07 20 03  07 02 47.936   -23 40 54.34  .09473 .95317  46.3 27??  57d  84
2026 07 20 04  07 02 51.345   -23 40 21.97  .09519 .95286  46.3 27??  57d  84
2026 07 20 05  07 02 54.723   -23 39 49.74  .09566 .95255  46.3 27??  57d  84
2026 07 20 06  07 02 58.071   -23 39 17.66  .09612 .95225  46.3 27??  57d  84
2026 07 20 07  07 03 01.390   -23 38 45.73  .09658 .95194  46.3 27??  57d  84
2026 07 20 08  07 03 04.680   -23 38 13.94  .09704 .95163  46.3 27??  57d  84
2026 07 20 09  07 03 07.941   -23 37 42.29  .09751 .95132  46.3 27??  57d  84
2026 07 20 10  07 03 11.175   -23 37 10.77  .09797 .95101  46.2 27??  57d  84
2026 07 20 11  07 03 14.381   -23 36 39.39  .09843 .95071  46.2 27??  57d  84
2026 07 20 12  07 03 17.559   -23 36 08.14  .09890 .95040  46.2 27??  57d  84
2026 07 20 13  07 03 20.711   -23 35 37.02  .09936 .95009  46.2 27??  57d  84
2026 07 20 14  07 03 23.837   -23 35 06.03  .09982 .94978  46.2 27??  57d  84
2026 07 20 15  07 03 26.937   -23 34 35.16  .10029 .94948  46.2 27??  57d  84
2026 07 20 16  07 03 30.011   -23 34 04.41  .10075 .94917  46.2 27??  57d  84
2026 07 20 17  07 03 33.060   -23 33 33.78  .10121 .94886  46.2 27??  57d  84
2026 07 20 18  07 03 36.084   -23 33 03.26  .10167 .94855  46.2 27??  57d  84
2026 07 20 19  07 03 39.084   -23 32 32.86  .10214 .94825  46.2 27??  57d  84
2026 07 20 20  07 03 42.059   -23 32 02.58  .10260 .94794  46.2 27??  57d  84
2026 07 20 21  07 03 45.011   -23 31 32.40  .10306 .94763  46.2 28??  57d  84
2026 07 20 22  07 03 47.939   -23 31 02.33  .10353 .94733  46.2 28??  57d  84
2026 07 20 23  07 03 50.845   -23 30 32.36  .10399 .94702  46.2 28??  57d  84
2026 07 21 00  07 03 53.727   -23 30 02.50  .10445 .94672  46.1 28??  57d  84
2026 07 21 01  07 03 56.588   -23 29 32.74  .10492 .94641  46.1 28??  57d  84
2026 07 21 02  07 03 59.426   -23 29 03.07  .10538 .94610  46.1 28??  57d  84
2026 07 21 03  07 04 02.242   -23 28 33.51  .10584 .94580  46.1 28??  57d  84
2026 07 21 04  07 04 05.038   -23 28 04.04  .10631 .94549  46.1 28??  57d  84
2026 07 21 05  07 04 07.811   -23 27 34.66  .10677 .94519  46.1 28??  57d  84
2026 07 21 06  07 04 10.565   -23 27 05.38  .10723 .94488  46.1 28??  57d  84
2026 07 21 07  07 04 13.297   -23 26 36.18  .10770 .94457  46.1 28??  57d  84
2026 07 21 08  07 04 16.010   -23 26 07.07  .10816 .94427  46.1 28??  57d  84
2026 07 21 09  07 04 18.702   -23 25 38.05  .10862 .94396  46.1 28??  57d  84
2026 07 21 10  07 04 21.375   -23 25 09.11  .10909 .94366  46.1 28??  57d  84
2026 07 21 11  07 04 24.028   -23 24 40.25  .10955 .94335  46.1 28??  57d  84
2026 07 21 12  07 04 26.663   -23 24 11.47  .11001 .94305  46.1 28??  57d  84
2026 07 21 13  07 04 29.278   -23 23 42.77  .11048 .94274  46.1 28??  57d  84
2026 07 21 14  07 04 31.875   -23 23 14.15  .11094 .94244  46.1 28??  57d  84
2026 07 21 15  07 04 34.454   -23 22 45.60  .11140 .94213  46.1 28??  57d  84
2026 07 21 16  07 04 37.014   -23 22 17.13  .11187 .94183  46.0 28??  57d  84
2026 07 21 17  07 04 39.557   -23 21 48.73  .11233 .94153  46.0 28??  57d  84
2026 07 21 18  07 04 42.082   -23 21 20.40  .11279 .94122  46.0 28??  57d  84
2026 07 21 19  07 04 44.590   -23 20 52.13  .11326 .94092  46.0 28??  57d  84
2026 07 21 20  07 04 47.081   -23 20 23.94  .11372 .94061  46.0 28??  57d  84
2026 07 21 21  07 04 49.555   -23 19 55.81  .11419 .94031  46.0 28??  57d  84
2026 07 21 22  07 04 52.012   -23 19 27.75  .11465 .94001  46.0 28??  57d  84
2026 07 21 23  07 04 54.453   -23 18 59.75  .11511 .93970  46.0 28??  57d  84
2026 07 22 00  07 04 56.878   -23 18 31.81  .11558 .93940  46.0 28??  57d  84
2026 07 22 01  07 04 59.287   -23 18 03.93  .11604 .93910  46.0 28??  57d  84
2026 07 22 02  07 05 01.681   -23 17 36.11  .11650 .93879  46.0 28??  57d  84